[[{"header":{"parameterUnit":"m.s-1","parameterCategory":1,"la1":30.2991,"la2":30.254,"lo1":-89.0895,"lo2":-89.0444,"dy":0.0017,"dx":0.0017,"nx":28,"ny":28,"refTime":"2025-08-29T21:00:00:Z","depth":0,"parameterNumber":2,"parameterNumberName":"U-component_of_WINDS"},"data":[0,0,0,0,0,0,0,0,0,0,0,0,0,0,0,0,0,0,0,0,0,0,0,0,0,0,0,0,0,0,0,0,0,0,0,0,0,0,0,0,0,0,0,0,0,0,0,0,0,0,0,0,0,0,0,0,0,0,-2.6411,-2.6411,0,-2.6364,-2.6363,-2.6363,-2.628,-2.6278,-2.6277,-2.6275,-2.6229,-2.6229,-2.6229,0,0,0,0,0,0,0,0,0,0,0,0,0,-2.6432,-2.6432,-2.6411,-2.6411,-2.641,-2.6364,-2.6363,-2.6363,-2.628,-2.6278,-2.6276,-2.6274,-2.6229,-2.6229,-2.6229,0,0,0,0,0,0,0,0,0,0,0,0,0,-2.6408,-2.6432,-2.6411,-2.6363,-2.6358,-2.6364,-2.6363,-2.6362,-2.628,-2.6278,-2.6276,-2.6273,-2.6228,-2.6229,-2.6229,-2.6279,0,0,-2.623,-2.623,0,0,0,0,0,0,0,0,-2.641,-2.6407,-2.6371,-2.6366,-2.6361,-2.6325,-2.6354,-2.6334,-2.6281,-2.631,-2.6275,-2.6272,-2.6263,-2.626,-2.6257,-2.6276,-2.6274,-2.623,-2.623,-2.6231,-2.6231,0,0,0,0,0,0,0,-2.6411,-2.6409,-2.6392,-2.637,-2.6364,-2.6345,-2.6339,-2.635,-2.63,-2.6307,-2.6301,-2.6297,-2.626,-2.6256,-2.6255,-2.6274,-2.623,-2.6231,-2.6231,-2.6231,-2.6334,-2.6336,0,0,0,0,0,0,-2.642,-2.6411,-2.6394,-2.6391,-2.638,-2.6346,-2.6339,-2.6339,-2.63,-2.6292,-2.6299,-2.6293,-2.6257,-2.6255,-2.6253,-2.6309,-2.6231,-2.6231,-2.6231,-2.6331,-2.6334,-2.6337,0,0,0,0,0,0,-2.6421,-2.6419,-2.6396,-2.6399,-2.6395,-2.6348,-2.6349,-2.6339,-2.6336,-2.6293,-2.6284,-2.6304,-2.6255,-2.6252,-2.6273,-2.6307,-2.6231,-2.6231,-2.6328,-2.6332,-2.6336,-2.6423,0,0,0,0,0,0,-2.6421,-2.642,-2.6437,-2.64,-2.6395,-2.6416,-2.6351,-2.634,-2.6337,-2.6329,-2.6296,-2.6289,-2.6253,-2.6273,-2.6273,-2.6306,-2.6232,-2.6325,-2.633,-2.6334,-2.6416,-2.6429,-2.6439,0,0,0,0,0,-2.6422,-2.6464,-2.6439,-2.6437,-2.6416,-2.6418,-2.6415,-2.6373,-2.634,-2.6358,-2.633,-2.629,-2.6303,-2.6276,-2.6276,-2.6309,-2.6323,-2.6329,-2.6334,-2.6411,-2.6426,-2.6439,0,0,0,0,0,0,-2.6507,-2.6458,-2.643,-2.646,-2.6444,-2.6404,-2.6425,-2.639,-2.6383,-2.6376,-2.6325,-2.6318,-2.6346,-2.6329,-2.63,-2.6355,-2.6306,-2.6312,-2.6365,-2.6379,-2.6391,-2.6395,-2.6232,0,0,0,0,0,-2.6529,-2.6534,-2.6491,-2.6522,-2.6516,-2.6472,-2.6472,-2.6441,-2.6422,-2.6415,-2.6389,-2.6373,-2.6374,-2.6375,-2.6373,-2.6413,-2.6406,-2.6436,-2.6448,-2.6457,-2.6463,-2.6485,-2.6498,-2.6356,-2.6355,-2.6355,0,0,-2.6574,-2.6548,-2.6555,-2.6539,-2.6522,-2.653,-2.6467,-2.6477,-2.6483,-2.6417,-2.6435,-2.6416,-2.6395,-2.6426,-2.6438,-2.6412,-2.6501,-2.6464,-2.6472,-2.6473,-2.6492,-2.6506,-2.6518,-2.6359,-2.6359,-2.6358,0,0,-2.6662,-2.6642,-2.6666,-2.6652,-2.6628,-2.6599,-2.6605,-2.6571,-2.6555,-2.6573,-2.6523,-2.653,-2.6531,-2.6519,-2.6513,-2.6597,-2.656,-2.6598,-2.6658,-2.668,-2.6691,-2.6701,-2.6732,-2.6744,-2.6604,-2.6604,-2.6604,0,-2.6722,-2.6731,-2.6684,-2.6697,-2.6693,-2.6632,-2.6657,-2.6645,-2.6623,-2.6621,-2.6593,-2.6595,-2.6576,-2.6604,-2.6625,-2.6621,-2.6628,-2.6602,-2.6693,-2.6702,-2.6711,-2.674,-2.6752,-2.6609,-2.6608,-2.6608,-2.6607,0,-2.6806,-2.6813,-2.6836,-2.6815,-2.6813,-2.6832,-2.6789,-2.6793,-2.6762,-2.6736,-2.6756,-2.6732,-2.6724,-2.6729,-2.6699,-2.6753,-2.6738,-2.6702,-2.6652,-2.673,-2.6757,-2.6768,-2.6616,-2.6614,-2.6613,-2.6611,0,0,-2.6945,-2.6899,-2.6908,-2.6899,-2.6869,-2.6874,-2.6891,-2.6884,-2.6888,-2.6875,-2.6889,-2.6893,-2.6859,-2.6853,-2.6821,-2.684,-2.691,-2.6801,-2.68,-2.6824,-2.6971,-2.6999,-2.7013,-2.6885,-2.6887,-2.6888,-2.6973,0,-2.7027,-2.7054,-2.7013,-2.7049,-2.7056,-2.6999,-2.7015,-2.6999,-2.6976,-2.6979,-2.6953,-2.6957,-2.6912,-2.6908,-2.6924,-2.6898,-2.6939,-2.6891,-2.6899,-2.69,-2.6908,-2.7026,-2.7056,-2.7137,-2.6983,-2.6985,-2.6986,0,-2.7126,-2.7118,-2.7155,-2.7124,-2.7125,-2.714,-2.7131,-2.7134,-2.7115,-2.7097,-2.709,-2.7053,-2.7069,-2.702,-2.7043,-2.7011,-2.7012,-2.7,-2.7002,-2.7002,-2.6949,-2.7031,-2.7161,-2.7174,-2.7002,-2.7001,-2.6999,0,-2.7226,-2.7224,-2.7246,-2.724,-2.7203,-2.7215,-2.7201,-2.718,-2.7178,-2.717,-2.7169,-2.7164,-2.7161,-2.7158,-2.7121,-2.7088,-2.7149,-2.7096,-2.7136,-2.7137,-2.7152,-2.7152,-2.7285,-2.715,-2.715,-2.715,-2.715,0,-2.7323,-2.7348,-2.7291,-2.7305,-2.7332,-2.7285,-2.7313,-2.7293,-2.7275,-2.7285,-2.7236,-2.7246,-2.7195,-2.7201,-2.7172,-2.7196,-2.7195,-2.7182,-2.7174,-2.7187,-2.7189,-2.7188,-2.7182,-2.7153,-2.7152,-2.7152,-2.7151,0,-2.7439,-2.7401,-2.7422,-2.7386,-2.7378,-2.74,-2.737,-2.7382,-2.7355,-2.7369,-2.7369,-2.7329,-2.7333,-2.7295,-2.7292,-2.7272,-2.7311,-2.7292,-2.7317,-2.7312,-2.7354,-2.7351,-2.7493,-2.751,-2.7363,-2.7364,-2.7366,0,-2.7504,-2.7522,-2.7488,-2.7491,-2.7479,-2.7484,-2.7483,-2.7438,-2.7438,-2.7419,-2.7434,-2.7434,-2.7432,-2.7441,-2.7412,-2.741,-2.7392,-2.7442,-2.7391,-2.7405,-2.7395,-2.7395,-2.7397,-2.7453,-2.7455,-2.7456,-2.7457,0,-2.7623,-2.7604,-2.7603,-2.7597,-2.7597,-2.7589,-2.7579,-2.7584,-2.7535,-2.7539,-2.7542,-2.754,-2.7537,-2.7539,-2.7531,-2.7517,-2.748,-2.7473,-2.7483,-2.7497,-2.7511,-2.7506,-2.7348,-2.7471,-2.7469,-2.7468,-2.7468,-2.7467,-2.7717,-2.7731,-2.771,-2.7711,-2.7698,-2.769,-2.77,-2.7676,-2.7677,-2.7671,-2.7644,-2.7653,-2.7635,-2.7621,-2.7611,-2.7618,-2.7594,-2.7607,-2.7611,-2.7615,-2.7623,-2.7509,-2.7616,-2.7616,-2.7615,-2.7615,-2.7615,0,-2.7835,-2.7819,-2.782,-2.7807,-2.7809,-2.7773,-2.776,-2.7764,-2.7772,-2.7758,-2.7757,-2.7762,-2.7763,-2.7735,-2.7733,-2.7744,-2.7727,-2.7745,-2.7745,-2.7743,-2.7644,-2.7637,-2.7759,-2.7759,-2.7759,-2.7759,-2.7759,-2.7759,-2.7897,-2.7919,-2.7898,-2.7914,-2.7898,-2.7906,-2.7902,-2.7894,-2.7883,-2.7891,-2.7892,-2.7872,-2.7853,-2.785,-2.785,-2.7841,-2.7844,-2.7868,-2.7855,-2.7763,-2.7749,-2.7736,-2.7729,-2.7869,-2.7869,-2.7953,-2.7953,-2.7954]},{"header":{"parameterUnit":"m.s-1","parameterCategory":1,"la1":30.2991,"la2":30.254,"lo1":-89.0895,"lo2":-89.0444,"dy":0.0017,"dx":0.0017,"nx":28,"ny":28,"refTime":"2025-08-29T21:00:00:Z","depth":0,"parameterNumber":3,"parameterNumberName":"V-component_of_WINDS"},"data":[0,0,0,0,0,0,0,0,0,0,0,0,0,0,0,0,0,0,0,0,0,0,0,0,0,0,0,0,0,0,0,0,0,0,0,0,0,0,0,0,0,0,0,0,0,0,0,0,0,0,0,0,0,0,0,0,0,0,-0.8454,-0.8454,0,-0.8452,-0.8452,-0.8452,-0.8446,-0.8446,-0.8446,-0.8446,-0.8444,-0.8444,-0.8444,0,0,0,0,0,0,0,0,0,0,0,0,0,-0.8453,-0.8453,-0.8454,-0.8454,-0.8454,-0.8452,-0.8452,-0.8452,-0.8446,-0.8446,-0.8446,-0.8446,-0.8444,-0.8444,-0.8444,0,0,0,0,0,0,0,0,0,0,0,0,0,-0.8452,-0.8453,-0.8454,-0.8451,-0.8451,-0.8452,-0.8452,-0.8452,-0.8446,-0.8446,-0.8446,-0.8446,-0.8444,-0.8444,-0.8444,-0.8448,0,0,-0.8444,-0.8444,0,0,0,0,0,0,0,0,-0.8452,-0.8452,-0.8451,-0.8451,-0.8451,-0.8449,-0.8451,-0.8451,-0.8446,-0.8448,-0.8446,-0.8446,-0.8446,-0.8446,-0.8446,-0.8448,-0.8448,-0.8444,-0.8444,-0.8444,-0.8444,0,0,0,0,0,0,0,-0.8452,-0.8452,-0.8453,-0.8451,-0.8451,-0.845,-0.8449,-0.8451,-0.8448,-0.8448,-0.8447,-0.8447,-0.8446,-0.8446,-0.8446,-0.8448,-0.8444,-0.8444,-0.8444,-0.8444,-0.8455,-0.8455,0,0,0,0,0,0,-0.8453,-0.8452,-0.8453,-0.8453,-0.8451,-0.845,-0.845,-0.845,-0.8448,-0.8447,-0.8447,-0.8447,-0.8446,-0.8445,-0.8445,-0.8451,-0.8444,-0.8444,-0.8444,-0.8455,-0.8455,-0.8455,0,0,0,0,0,0,-0.8453,-0.8453,-0.8453,-0.8453,-0.8453,-0.845,-0.8451,-0.845,-0.845,-0.8448,-0.8447,-0.8448,-0.8445,-0.8445,-0.8448,-0.8451,-0.8444,-0.8444,-0.8454,-0.8455,-0.8455,-0.8462,0,0,0,0,0,0,-0.8453,-0.8453,-0.8454,-0.8453,-0.8453,-0.8456,-0.8451,-0.845,-0.845,-0.845,-0.8448,-0.8448,-0.8445,-0.8448,-0.8448,-0.8451,-0.8444,-0.8454,-0.8455,-0.8455,-0.8462,-0.8463,-0.8464,0,0,0,0,0,-0.8453,-0.8456,-0.8454,-0.8455,-0.8454,-0.8456,-0.8456,-0.8453,-0.8451,-0.8452,-0.8451,-0.8448,-0.8451,-0.8448,-0.8448,-0.8451,-0.8454,-0.8455,-0.8455,-0.8461,-0.8463,-0.8464,0,0,0,0,0,0,-0.8458,-0.8456,-0.8454,-0.8457,-0.8457,-0.8455,-0.8457,-0.8454,-0.8455,-0.8454,-0.8451,-0.845,-0.8454,-0.8453,-0.845,-0.8456,-0.8452,-0.8452,-0.8457,-0.8458,-0.8459,-0.8459,-0.8445,0,0,0,0,0,-0.8459,-0.846,-0.8459,-0.8461,-0.8461,-0.8459,-0.8459,-0.8458,-0.8457,-0.8457,-0.8456,-0.8455,-0.8456,-0.8457,-0.8457,-0.8462,-0.8462,-0.8464,-0.8465,-0.8466,-0.8466,-0.847,-0.8471,-0.8457,-0.8457,-0.8457,0,0,-0.8462,-0.8461,-0.8462,-0.8462,-0.8462,-0.8464,-0.8459,-0.8461,-0.8462,-0.8457,-0.846,-0.8459,-0.8458,-0.8462,-0.8463,-0.8461,-0.847,-0.8466,-0.8467,-0.8467,-0.847,-0.8472,-0.8473,-0.8457,-0.8457,-0.8457,0,0,-0.8468,-0.8467,-0.847,-0.847,-0.847,-0.8468,-0.8469,-0.8468,-0.8467,-0.847,-0.8467,-0.8468,-0.847,-0.847,-0.847,-0.8478,-0.8475,-0.8478,-0.8483,-0.8487,-0.8488,-0.8489,-0.8492,-0.8494,-0.8479,-0.8479,-0.8479,0,-0.8472,-0.8474,-0.8472,-0.8474,-0.8475,-0.8471,-0.8474,-0.8474,-0.8474,-0.8474,-0.8472,-0.8475,-0.8474,-0.8478,-0.848,-0.848,-0.8481,-0.8478,-0.8488,-0.8489,-0.849,-0.8493,-0.8494,-0.8479,-0.8479,-0.8479,-0.8479,0,-0.8479,-0.8481,-0.8483,-0.8484,-0.8485,-0.8487,-0.8485,-0.8487,-0.8485,-0.8484,-0.8487,-0.8486,-0.8487,-0.8488,-0.8486,-0.8492,-0.8491,-0.8488,-0.8484,-0.8491,-0.8495,-0.8496,-0.848,-0.8479,-0.8479,-0.8479,0,0,-0.8487,-0.8488,-0.8489,-0.849,-0.8489,-0.8491,-0.8494,-0.8495,-0.8497,-0.8497,-0.85,-0.8502,-0.8499,-0.85,-0.8498,-0.85,-0.8508,-0.8497,-0.8497,-0.85,-0.8516,-0.8519,-0.852,-0.8506,-0.8506,-0.8507,-0.8516,0,-0.8494,-0.8499,-0.8498,-0.8503,-0.8505,-0.8502,-0.8505,-0.8505,-0.8505,-0.8507,-0.8506,-0.8508,-0.8504,-0.8505,-0.8507,-0.8506,-0.8511,-0.8506,-0.8509,-0.8509,-0.851,-0.8522,-0.8524,-0.8533,-0.8517,-0.8518,-0.8518,0,-0.8502,-0.8503,-0.8509,-0.851,-0.8511,-0.8513,-0.8515,-0.8517,-0.8518,-0.8517,-0.8518,-0.8516,-0.852,-0.8515,-0.852,-0.8517,-0.8518,-0.8518,-0.8518,-0.8519,-0.8514,-0.8523,-0.8536,-0.8538,-0.8519,-0.8519,-0.8519,0,-0.8508,-0.8512,-0.8516,-0.8517,-0.8518,-0.852,-0.852,-0.8521,-0.8522,-0.8524,-0.8525,-0.8527,-0.8528,-0.853,-0.8528,-0.8525,-0.8534,-0.8529,-0.8534,-0.8534,-0.8536,-0.8536,-0.855,-0.8536,-0.8536,-0.8536,-0.8536,0,-0.8516,-0.852,-0.8519,-0.8522,-0.8526,-0.8525,-0.853,-0.853,-0.8531,-0.8533,-0.8531,-0.8534,-0.8531,-0.8534,-0.8533,-0.8538,-0.8538,-0.8538,-0.8538,-0.8539,-0.8539,-0.854,-0.854,-0.8536,-0.8536,-0.8536,-0.8536,0,-0.8524,-0.8524,-0.8528,-0.853,-0.853,-0.8533,-0.8534,-0.8537,-0.8537,-0.8541,-0.8541,-0.8541,-0.8544,-0.8543,-0.8546,-0.8546,-0.8552,-0.8551,-0.8552,-0.8552,-0.8557,-0.8557,-0.8573,-0.8575,-0.8559,-0.8559,-0.8559,0,-0.8529,-0.8532,-0.8534,-0.8536,-0.8537,-0.854,-0.8542,-0.8541,-0.8543,-0.8545,-0.8548,-0.8551,-0.8553,-0.8559,-0.8559,-0.8562,-0.8561,-0.8566,-0.8561,-0.8562,-0.8562,-0.8562,-0.8563,-0.8567,-0.8567,-0.8567,-0.8568,0,-0.8538,-0.8539,-0.8541,-0.8545,-0.8547,-0.855,-0.8552,-0.8554,-0.8553,-0.8555,-0.8559,-0.8561,-0.8565,-0.8568,-0.8571,-0.8572,-0.857,-0.8569,-0.8571,-0.8572,-0.8573,-0.8573,-0.8556,-0.8569,-0.8569,-0.8569,-0.8569,-0.8569,-0.8545,-0.8549,-0.8551,-0.8555,-0.8557,-0.8559,-0.8562,-0.8563,-0.8566,-0.857,-0.8569,-0.8573,-0.8575,-0.8579,-0.858,-0.8584,-0.8582,-0.8583,-0.8584,-0.8585,-0.8586,-0.8572,-0.8584,-0.8584,-0.8584,-0.8584,-0.8584,0,-0.8555,-0.8557,-0.8561,-0.8565,-0.8568,-0.8566,-0.8569,-0.8572,-0.8576,-0.8578,-0.8581,-0.8586,-0.859,-0.859,-0.8594,-0.8597,-0.8596,-0.8598,-0.8598,-0.8599,-0.8587,-0.8586,-0.8599,-0.8599,-0.8599,-0.8599,-0.8599,-0.8599,-0.8561,-0.8567,-0.8568,-0.8575,-0.8576,-0.8581,-0.8583,-0.8585,-0.8587,-0.8593,-0.8597,-0.8597,-0.8599,-0.8603,-0.8607,-0.8607,-0.8609,-0.8611,-0.8611,-0.8601,-0.8599,-0.8598,-0.8597,-0.8612,-0.8612,-0.8623,-0.8623,-0.8623]}]]